Location: Malvern Link
(52.1333°N, 2.3000°W)
Time: 00:27:21
(UTC+00:00)

OBJECT-B - Pass Details

Date: 18 September 2020
Orbit: 421 x 433 km, 97.0° (Epoch: 09 October)

Event Time Altitude Azimuth Distance (km) Brightness Sun altitude
Exits shadow 20:34:37 34° 221° (SW) 724 1.9 -20.9°
Maximum altitude 20:35:28 42° 262° (W) 618 1.9 -21.0°
Drops below altitude 10° 20:38:35 10° 335° (NNW) 1,525 4.4 -21.4°
Sets 20:40:41 0° 342° (NNW) 2,398 5.4 -21.7°
